Location: Caltech
(34.1382°N, 118.1253°W)
Time: 12:59:03
(UTC-08:00)

MaSat-1 - Visible Passes

Search period start: 19 December 2014 00:00
Search period end: 29 December 2014 00:00
Orbit: 246 x 435 km, 69.4° (Epoch: 19 December)

Date Brightness Start Highest point End Pass type
(mag) Time Alt. Az. Time Alt. Az. Time Alt. Az.
20 Dec ? 18:05:53 10° NNW 18:05:53 10° NNW 18:05:53 10° NNW visible
21 Dec ? 18:26:27 10° NW 18:28:38 27° WSW 18:30:56 10° S visible
23 Dec ? 17:30:27 10° NNW 17:32:55 90° ENE 17:35:32 10° SSE visible
24 Dec ? 17:47:49 10° WNW 17:49:45 20° WSW 17:51:47 10° SSW visible
27 Dec ? 05:56:11 10° SE 05:57:31 14° ESE 05:58:50 10° ENE visible
28 Dec ? 06:07:58 10° S 06:10:11 53° ESE 06:12:21 10° NNE visible
